Madison, WI

10:02 AM CST on November 17, 2019 (GMT -0600)
Dane County Regional-Truax

Weather History for KMSN - July, 2019

Change the Weather History Date:

Thursday, July 11, 2019

  Actual Average Record
Temperature  
Mean Temperature 72 °F 72 °F  
Max Temperature 82 °F 82 °F 100 °F (1936)
Min Temperature 61 °F 61 °F 46 °F (1968)
Degree Days  
Heating Degree Days 0 0  
Month to date heating degree days 0 0  
Since 1 June heating degree days 42 60  
Since 1 July heating degree days 0 0  
Cooling Degree Days 7 7  
Month to date cooling degree days 111 75  
Year to date cooling degree days 229 225  
Since 1 June cooling degree days 209 195  
Growing Degree Days 23 (Base 50)    
Moisture  
Dew Point 59 °F    
Average Humidity 63    
Maximum Humidity 87    
Minimum Humidity 39    
Precipitation  
Precipitation 0.00 in 0.15 in 3.82 in (1878)
Month to date precipitation 2.14 1.55  
Year to date precipitation 23.11 17.92  
Snow  
Snow 0.00 in 0.00 in 0.00 in (2018)
Month to date snowfall 0.0 0.0  
Since 1 June snowfall 0.0 0.0  
Since 1 July snowfall 0.0 0.0  
Snow Depth 0.00 in    
Sea Level Pressure  
Sea Level Pressure 29.94 in    
Wind  
Wind Speed 6 mph (NNW)    
Max Wind Speed 16 mph    
Max Gust Speed 23 mph    
Visibility 10 miles    
Events      
T = Trace of Precipitation, MM = Missing Value Source: NWS Daily Summary

Daily Weather History Graph

Daily Weather History Graph

Search for Another Location

Airport or City:

Astronomy

Jul. 11, 2019 Rise Set
Actual Time 5:27 AM CDT 8:37 PM CDT
Civil Twilight 4:53 AM CDT 9:11 PM CDT
Nautical Twilight 4:08 AM CDT 9:56 PM CDT
Astronomical Twilight 3:15 AM CDT 10:49 PM CDT
Moon 3:46 PM CDT (7/11) 1:44 AM CDT (7/11)
Length of Visible Light 16h 18m
Length of Day
15h 09m
Waxing Gibbous, 74% of the Moon is Illuminated
Jul 11
Waxing Gibbous
Jul 16
Full
Jul 24
Last Quarter
Jul 31
New
Aug 7
First Quarter

Hourly Weather History & Observations

Time (CDT) Temp. Heat Index Dew Point Humidity Pressure Visibility Wind Dir Wind Speed Gust Speed Precip Events Conditions
12:53 AM 72.0 °F - 62.1 °F 71% 29.87 in 10.0 mi NW 3.5 mph - N/A   Overcast
1:53 AM 70.0 °F - 62.1 °F 76% 29.87 in 10.0 mi WNW 5.8 mph - N/A   Mostly Cloudy
2:53 AM 69.1 °F - 63.0 °F 81% 29.87 in 10.0 mi NW 8.1 mph - N/A   Clear
3:53 AM 68.0 °F - 63.0 °F 84% 29.88 in 10.0 mi North 4.6 mph - N/A   Clear
4:53 AM 66.9 °F - 63.0 °F 87% 29.90 in 10.0 mi NNW 4.6 mph - N/A   Clear
5:53 AM 66.0 °F - 63.0 °F 90% 29.91 in 10.0 mi Calm Calm - N/A   Partly Cloudy
6:53 AM 69.1 °F - 63.0 °F 81% 29.93 in 10.0 mi NNW 6.9 mph - N/A   Clear
7:53 AM 71.1 °F - 64.0 °F 78% 29.95 in 10.0 mi NNE 10.4 mph - N/A   Partly Cloudy
8:53 AM 73.0 °F - 63.0 °F 71% 29.96 in 10.0 mi North 10.4 mph - N/A   Partly Cloudy
9:53 AM 75.9 °F - 62.1 °F 62% 29.96 in 10.0 mi NNE 11.5 mph - N/A   Scattered Clouds
10:53 AM 77.0 °F - 61.0 °F 58% 29.96 in 10.0 mi North 6.9 mph - N/A   Scattered Clouds
11:53 AM 78.1 °F - 59.0 °F 52% 29.97 in 10.0 mi NNE 11.5 mph - N/A   Partly Cloudy
12:53 PM 80.1 °F 80.9 °F 60.1 °F 50% 29.97 in 10.0 mi NNW 9.2 mph - N/A   Partly Cloudy
1:53 PM 81.0 °F 81.0 °F 57.0 °F 44% 29.97 in 10.0 mi North 8.1 mph - N/A   Partly Cloudy
2:53 PM 81.0 °F 80.8 °F 55.9 °F 42% 29.97 in 10.0 mi NNW 8.1 mph - N/A   Partly Cloudy
3:53 PM 82.0 °F 82.0 °F 57.9 °F 44% 29.96 in 10.0 mi NNW 6.9 mph - N/A   Scattered Clouds
4:53 PM 82.0 °F 81.4 °F 55.0 °F 39% 29.95 in 10.0 mi North 6.9 mph - N/A   Mostly Cloudy
5:53 PM 81.0 °F 80.4 °F 53.1 °F 38% 29.95 in 10.0 mi NNW 5.8 mph - N/A   Mostly Cloudy
6:53 PM 79.0 °F - 53.1 °F 40% 29.94 in 10.0 mi North 6.9 mph - N/A   Partly Cloudy
7:53 PM 75.9 °F - 55.0 °F 48% 29.95 in 10.0 mi NNW 3.5 mph - N/A   Partly Cloudy
8:53 PM 70.0 °F - 57.0 °F 63% 29.95 in 10.0 mi Calm Calm - N/A   Scattered Clouds
9:53 PM 64.9 °F - 57.9 °F 78% 29.96 in 10.0 mi Calm Calm - N/A   Partly Cloudy
10:53 PM 64.0 °F - 57.9 °F 80% 29.96 in 10.0 mi Calm Calm - N/A   Partly Cloudy
11:53 PM 62.1 °F - 57.0 °F 84% 29.96 in 10.0 mi Calm Calm - N/A   Clear